CW7368 Weather Reports


Display with metric or nautical units.
time (UTC)temp
F
wind
direction
speed
MPH
gust
MPH
rain 1hr
in
rain 24hr
in
rain mn
in
humidity
%
barometer
mb
20170924211806 71 0 8.0 23.0 0.00 0.00 0.00 47 995.0
20170924211306 71 8 12.0 21.0 0.00 0.00 0.00 46 995.0
20170924210806 71 2 10.0 20.0 0.00 0.00 0.00 46 995.1
20170924210306 71 343 11.0 18.0 0.00 0.00 0.00 46 995.0
20170924205806 71 351 12.0 28.0 0.00 0.00 0.00 46 994.6
20170924205306 71 343 10.0 20.0 0.00 0.00 0.00 47 995.1
20170924204806 70 340 9.0 20.0 0.00 0.00 0.00 47 995.2
20170924204306 70 343 8.0 17.0 0.00 0.00 0.00 47 995.3
20170924203806 70 342 6.0 13.0 0.00 0.00 0.00 48 995.2
20170924203306 71 6 7.0 15.0 0.00 0.00 0.00 47 995.2
20170924202806 70 17 6.0 17.0 0.00 0.00 0.00 47 995.1
20170924202307 70 20 3.0 10.0 0.00 0.00 0.00 48 995.0
20170924201806 70 50 3.0 14.0 0.00 0.00 0.00 49 995.0
20170924201306 69 63 0.0 7.0 0.00 0.00 0.00 50 994.9
20170924200806 68 60 2.0 8.0 0.00 0.00 0.00 52 995.2
20170924200306 67 6 3.0 8.0 0.00 0.00 0.00 54 995.3
20170924195806 67 330 2.0 6.0 0.00 0.00 0.00 54 995.4
20170924195306 67 0 0.0 1.0 0.00 0.00 0.00 55 996.0
20170924194806 67 0 1.0 5.0 0.00 0.00 0.00 54 996.2
20170924194307 66 15 1.0 3.0 0.00 0.00 0.00 55 995.9
20170924193806 66 14 0.0 10.0 0.00 0.00 0.00 57 995.8
20170924193306 65 59 4.0 12.0 0.00 0.00 0.00 59 995.8
20170924192806 63 234 2.0 6.0 0.00 0.00 0.00 62 995.4
20170924192307 63 101 0.0 6.0 0.00 0.00 0.00 63 995.7
20170924191806 63 101 1.0 3.0 0.00 0.00 0.00 62 995.7
20170924191306 63 101 0.0 1.0 0.00 0.00 0.00 62 995.7
20170924190806 63 101 0.0 3.0 0.00 0.00 0.00 61 995.7
20170924190307 63 101 0.0 2.0 0.00 0.00 0.00 62 995.2
20170924185807 63 88 2.0 5.0 0.00 0.00 0.00 61 995.7
20170924185306 64 63 2.0 5.0 0.00 0.00 0.00 60 996.7
20170924184806 64 59 0.0 1.0 0.00 0.00 0.00 59 997.1
20170924184306 65 59 0.0 1.0 0.00 0.00 0.00 57 996.8
20170924183806 65 59 1.0 3.0 0.00 0.00 0.00 56 996.7
20170924183306 66 59 1.0 3.0 0.00 0.00 0.00 54 996.7
20170924182806 67 35 1.0 5.0 0.00 0.00 0.00 52 996.4
20170924182308 67 3 0.0 2.0 0.00 0.00 0.00 52 996.2
20170924181807 67 18 1.0 5.0 0.00 0.00 0.00 52 996.2
20170924181306 67 20 1.0 7.0 0.00 0.00 0.00 51 995.8
20170924180807 67 60 2.0 7.0 0.00 0.00 0.00 51 995.7
20170924180306 67 10 2.0 17.0 0.00 0.00 0.00 51 996.2
20170924065806 61 77 0.0 0.0 0.00 0.00 0.00 73 1003.3
20170924065305 61 77 0.0 0.0 0.00 0.00 0.00 72 1003.2
20170924064806 61 77 0.0 1.0 0.00 0.00 0.00 72 1003.2
20170924064306 61 77 0.0 0.0 0.00 0.00 0.00 71 1003.2
20170924063806 62 77 0.0 0.0 0.00 0.00 0.00 70 1003.3
20170924063306 62 77 0.0 0.0 0.00 0.00 0.00 69 1003.3
20170924062806 62 77 0.0 1.0 0.00 0.00 0.00 69 1003.3
20170924062306 63 77 0.0 0.0 0.00 0.00 0.00 68 1003.4
20170924061806 63 77 0.0 0.0 0.00 0.00 0.00 67 1003.4
20170924061306 63 77 0.0 1.0 0.00 0.00 0.00 67 1003.4
20170924060806 64 77 0.0 1.0 0.00 0.00 0.00 66 1003.5
20170924060305 64 77 0.0 1.0 0.00 0.00 0.00 65 1003.5
20170924055806 64 77 1.0 2.0 0.00 0.00 0.00 65 1003.7
20170924055305 64 77 1.0 3.0 0.00 0.00 0.00 64 1003.7
20170924054806 65 77 2.0 3.0 0.00 0.00 0.00 64 1003.7
20170924054306 65 77 1.0 5.0 0.00 0.00 0.00 63 1003.8
20170924053806 65 77 1.0 3.0 0.00 0.00 0.00 63 1003.8
20170924053306 65 78 1.0 6.0 0.00 0.00 0.00 62 1003.8
20170924052805 66 71 2.0 8.0 0.00 0.00 0.00 61 1003.8
20170924052306 66 70 0.0 3.0 0.00 0.00 0.00 61 1003.8
20170924051806 66 70 1.0 3.0 0.00 0.00 0.00 60 1003.8
20170924051306 66 70 1.0 3.0 0.00 0.00 0.00 61 1003.8
20170924050806 66 69 1.0 3.0 0.00 0.00 0.00 61 1003.8
20170924050306 66 70 2.0 3.0 0.00 0.00 0.00 60 1003.9
20170924045806 67 69 1.0 5.0 0.00 0.00 0.00 60 1003.9
20170924045305 67 72 0.0 5.0 0.00 0.00 0.00 59 1004.0
20170924044806 68 78 0.0 3.0 0.00 0.00 0.00 59 1004.0
20170924044306 68 76 1.0 3.0 0.00 0.00 0.00 58 1003.9
20170924043806 68 76 0.0 2.0 0.00 0.00 0.00 59 1004.0
20170924043309 68 76 0.0 5.0 0.00 0.00 0.00 58 1004.1
20170924042807 68 76 1.0 5.0 0.00 0.00 0.00 58 1004.0
20170924042306 68 71 3.0 6.0 0.00 0.00 0.00 58 1004.1
20170924041806 68 63 3.0 6.0 0.00 0.00 0.00 58 1004.1
20170924041306 68 92 1.0 6.0 0.00 0.00 0.00 58 1004.2
20170924040810 68 75 2.0 8.0 0.00 0.00 0.00 58 1004.2
20170924040311 68 87 1.0 8.0 0.00 0.00 0.00 59 1004.3
20170924035808 67 105 2.0 6.0 0.00 0.00 0.00 58 1004.3
20170924035309 67 114 2.0 7.0 0.00 0.00 0.00 58 1004.4
20170924034808 67 99 2.0 8.0 0.00 0.00 0.00 58 1004.5
20170924034307 67 98 2.0 7.0 0.00 0.00 0.00 57 1004.5
20170924033806 68 111 3.0 7.0 0.00 0.00 0.00 57 1004.6
20170924033306 68 103 2.0 8.0 0.00 0.00 0.00 57 1004.6
20170924032806 68 105 2.0 8.0 0.00 0.00 0.00 57 1004.7
20170924032307 68 95 5.0 12.0 0.00 0.00 0.00 56 1004.7
20170924031806 69 107 3.0 9.0 0.00 0.00 0.00 55 1004.7
20170924031307 69 82 5.0 9.0 0.00 0.00 0.00 54 1004.7
20170924030807 69 62 2.0 10.0 0.00 0.00 0.00 54 1004.8
20170924030308 69 104 4.0 12.0 0.00 0.00 0.00 54 1004.9
20170924025806 69 111 7.0 12.0 0.00 0.00 0.00 53 1005.0
20170924025306 68 95 5.0 12.0 0.00 0.00 0.00 54 1005.0
20170924024806 68 70 6.0 12.0 0.00 0.00 0.00 53 1005.0
20170924024306 68 71 7.0 12.0 0.00 0.00 0.00 52 1005.1
20170924023805 68 100 6.0 12.0 0.00 0.00 0.00 52 1005.1
20170924023305 69 105 6.0 14.0 0.00 0.00 0.00 52 1005.2
20170924022806 68 76 7.0 14.0 0.00 0.00 0.00 52 1005.2
20170924022307 69 73 7.0 13.0 0.00 0.00 0.00 50 1005.2
20170924021806 69 79 3.0 9.0 0.00 0.00 0.00 51 1005.3
20170924021306 68 115 5.0 10.0 0.00 0.00 0.00 52 1005.5
20170924020806 68 102 7.0 12.0 0.00 0.00 0.00 51 1005.6
20170924020305 69 115 5.0 9.0 0.00 0.00 0.00 51 1005.8
20170924015806 68 103 6.0 12.0 0.00 0.00 0.00 51 1005.7
20170924015306 68 81 5.0 12.0 0.00 0.00 0.00 51 1005.8
20170924014805 67 104 7.0 12.0 0.00 0.00 0.00 50 1006.0
20170924014306 68 91 6.0 13.0 0.00 0.00 0.00 50 1006.0
20170924013806 68 91 6.0 12.0 0.00 0.00 0.00 50 1006.1
20170924013305 68 64 6.0 14.0 0.00 0.00 0.00 49 1006.3
20170924012806 68 72 4.0 14.0 0.00 0.00 0.00 49 1006.4
20170924012307 68 109 5.0 12.0 0.00 0.00 0.00 49 1006.5
20170924011806 69 92 6.0 12.0 0.00 0.00 0.00 48 1006.6
20170924011306 68 102 3.0 12.0 0.00 0.00 0.00 49 1006.6
20170924010806 68 71 4.0 12.0 0.00 0.00 0.00 48 1006.7
20170924010306 69 118 6.0 10.0 0.00 0.00 0.00 48 1006.7
20170924005805 69 74 5.0 12.0 0.00 0.00 0.00 48 1006.8
20170924005306 70 122 5.0 10.0 0.00 0.00 0.00 47 1007.0
20170924004806 69 109 3.0 10.0 0.00 0.00 0.00 48 1007.0
20170924004306 69 78 4.0 9.0 0.00 0.00 0.00 48 1007.0
20170924003805 69 81 3.0 9.0 0.00 0.00 0.00 48 1007.1
20170924003306 69 97 6.0 10.0 0.00 0.00 0.00 47 1007.1
20170924002805 68 104 4.0 10.0 0.00 0.00 0.00 49 1007.2
20170924002307 69 63 7.0 12.0 0.00 0.00 0.00 47 1007.2
20170924001805 69 90 5.0 12.0 0.00 0.00 0.00 47 1007.3
20170924001306 69 92 2.0 9.0 0.00 0.00 0.00 49 1007.4
20170924000806 68 89 5.0 10.0 0.00 0.00 0.00 49 1007.4
20170924000306 68 66 5.0 10.0 0.00 0.00 0.00 50 1007.3
20170923235806 68 76 6.0 12.0 0.00 0.00 0.00 49 1007.5
20170923235306 68 87 5.0 9.0 0.00 0.00 0.00 50 1007.7
20170923234806 68 72 5.0 10.0 0.00 0.00 0.00 50 1007.9
20170923234305 67 73 4.0 12.0 0.00 0.00 0.00 50 1007.9
20170923233806 67 84 6.0 12.0 0.00 0.00 0.00 51 1007.9
20170923233305 67 73 6.0 12.0 0.00 0.00 0.00 51 1008.1
20170923232806 67 88 3.0 10.0 0.00 0.00 0.00 50 1008.2
20170923232306 66 87 3.0 9.0 0.00 0.00 0.00 50 1008.1
20170923231805 66 74 5.0 12.0 0.00 0.00 0.00 50 1008.2
20170923231305 66 80 5.0 9.0 0.00 0.00 0.00 49 1008.2
20170923230806 67 94 2.0 8.0 0.00 0.00 0.00 50 1008.3
20170923230305 68 93 5.0 8.0 0.00 0.00 0.00 49 1008.3
20170923225807 67 142 2.0 8.0 0.00 0.00 0.00 51 1008.6
20170923223306 66 70 4.0 8.0 0.00 0.00 0.00 51 1008.6
20170923222805 66 65 2.0 6.0 0.00 0.00 0.00 52 1008.5
20170923222309 65 82 3.0 8.0 0.00 0.00 0.00 53 1008.5
20170923221806 65 68 2.0 8.0 0.00 0.00 0.00 53 1008.5
20170923221307 65 77 5.0 9.0 0.00 0.00 0.00 54 1008.6
20170923220807 64 74 2.0 10.0 0.00 0.00 0.00 55 1008.5
20170923220307 64 85 3.0 9.0 0.00 0.00 0.00 55 1008.5
20170923215806 64 66 6.0 10.0 0.00 0.00 0.00 54 1008.5
20170923215306 64 69 3.0 7.0 0.00 0.00 0.00 57 1008.7
20170923214805 64 102 4.0 8.0 0.00 0.00 0.00 58 1008.8
20170923214305 63 73 4.0 8.0 0.00 0.00 0.00 58 1009.0
20170923213805 63 67 3.0 8.0 0.00 0.00 0.00 58 1008.9
20170923213305 63 78 3.0 8.0 0.00 0.00 0.00 58 1008.9
20170923212806 63 54 1.0 5.0 0.00 0.00 0.00 61 1008.9
20170923212306 62 69 1.0 6.0 0.00 0.00 0.00 63 1008.9